Other Public Products
Issued by NWS Charleston, SC

Current Version | Previous Version | Graphics & Text | Print | Product List | Glossary On
Versions: 1 2 3 4 5 6 7 8 9 10 11 12 13 14 15 16 17 18 19 20 21 22 23 24 25 26 27 28 29 30 31 32 33 34 35 36 37 38 39 40 41 42 43 44 45 46 47 48 49 50
579
FPUS82 KCHS 230912
OPUCHS

TEST...KCHS/KSAV Gateway Observations...TEST
National Weather Service Charleston SC
400 AM EST THU NOV 23 2017

NOTE: "fair" indicates few or no clouds below 12,000 feet with no
significant weather and/or obstructions to visibility.

SCZ050-WAZ558-NCZ071-TXZ119-213-PAZ071-DCZ001-FLZ074-172-MI076-
NYZ176-178-MAZ016-IL014-TNZ027-NJZ106-GAZ044-MD014-231000-

...Gateway Observations for Charleston International...

CITY           SKY/WX    TMP DP  RH WIND       PRES   REMARKS
Chas Airport   CLOUDY    51  38  60 NE12      30.06S
Seattle        LGT RAIN  58  56  93 SW12      29.86R
Charlotte      MOCLDY    37  29  72 N5        30.14S WCI  33
Dallas DFW     CLOUDY    39  29  67 SW5       30.20F WCI  36
Dallas Love    PTCLDY    42  30  62 CALM      30.22F
Philladelphia  CLEAR     33  19  56 NW3       30.14F
Wash National  PTCLDY    34  23  64 NW8       30.18S WCI  27
Baltimore      PTCLDY    29  22  75 CALM      30.16F
Miami          PTCLDY    74  69  85 SE3       29.89S
Detroit        CLOUDY    30  23  75 S6        30.17F WCI  24
Newark         CLEAR     33  19  56 NW10      30.09F WCI  25
Laguardia      CLEAR     35  22  58 NW17G25   30.08F WCI  25
J F K          CLEAR     32  20  61 NW13G22   30.09F WCI  22
Boston Logan   CLEAR     34  22  61 W13       29.99R WCI  25
Ft. Lauderdale PTCLDY    72  72 100 CALM      29.88S
Chicago O`Hare CLOUDY    33  18  53 SW9       30.10F WCI  25
Chicago Midway CLOUDY    33  20  58 SW10      30.12F WCI  25
Houston Bush   CLEAR     45  36  70 N5        30.19F
Houston Hobby  CLEAR     47  37  68 N8        30.18F
Nashville      CLOUDY    31  24  75 NW6       30.18S WCI  25
Atlanta        CLOUDY    45  35  68 NE9       30.06F

$$

GAZ044-118-TXZ119-213-NCZ071-DCZ001-MDZ014-506-PAZ021-071-NJZ106-
NYZ176-178-MAZ106-OHZ011-021-055-MIZ076-KYZ091-ILZ014-INZ047-
MNZ060-ONZ431-231000-

...Gateway Observations for Savannah International...

CITY           SKY/WX    TMP DP  RH WIND       PRES   REMARKS
Savannah Arpt  CLOUDY    56  46  69 NE9       30.03S
Atlanta        CLOUDY    45  35  68 NE9       30.06F
Charlotte      MOCLDY    37  29  72 N5        30.14S WCI  33
Dallas DFW     CLOUDY    39  29  67 SW5       30.20F WCI  36
Houston Bush   CLEAR     45  36  70 N5        30.19F
Wash National  PTCLDY    34  23  64 NW8       30.18S WCI  27
Wash Dulles    CLOUDY    29  22  75 NW5       30.17S WCI  24
Baltimore      PTCLDY    29  22  75 CALM      30.16F
Philadelphia   CLEAR     33  19  56 NW3       30.14F
Newark         CLEAR     33  19  56 NW10      30.09F WCI  25
Laguardia      CLEAR     35  22  58 NW17G25   30.08F WCI  25
J F K          CLEAR     32  20  61 NW13G22   30.09F WCI  22
Boston         CLEAR     34  22  61 W13       29.99R WCI  25
Pittsburg      CLOUDY    24  21  88 CALM      30.17F
Akron          PTCLDY    25  17  72 CALM      30.17F
Cleveland      CLOUDY    28  19  69 SW5       30.21F WCI  23
Cincinnati     CLOUDY    24  22  91 CALM      30.19F
Columbus       CLOUDY    22  21  96 CALM      30.21S
Detroit        CLOUDY    30  23  75 S6        30.17F WCI  24
Chicago O`Hare CLOUDY    33  18  53 SW9       30.10F WCI  25
Minneapolis    CLOUDY    26  19  74 CALM      29.94R
Indianapolis   CLOUDY    29  25  85 SW3       30.19F
Toronto Canada CLOUDY    30  21  69 SW13      30.13S WCI  20

$$




USA.gov is the U.S. government's official web portal to all federal, state and local government web resources and services.